User: anonymous   Login
Location: Unspecified
(0.0000°N, 0.0000°E)
Time: 09:32:39
(UTC+01:00)
Language:

GPS 2-12 Rocket1 - Orbit

View from above orbital plane
View from above orbital plane
View from above satellite
View from above satellite

Ground track
Ground track

The orbit data is extracted from the following two-line orbital elements,

1 21891U 92009B   14322.88928409  .00003450  00000-0  37439-3 0  3468
2 21891 019.9947 154.3368 0048712 351.1336 008.8221 14.81298116226402
Epoch (UTC): 18 November 2014 21:20:34
Eccentricity: 0.0048712
inclination: 19.9947°
perigee height: 591 km
apogee height: 659 km
right ascension of ascending node: 154.3368°
argument of perigee: 351.1336°
revolutions per day: 14.81298116
mean anomaly at epoch: 8.8221°
orbit number at epoch: 22640

The dashed part of the orbit path shows where the satellite is in the earth's shadow,  

DLR